[[{"header":{"parameterUnit":"m.s-1","parameterCategory":1,"la1":30.2991,"la2":30.254,"lo1":-89.0895,"lo2":-89.0444,"dy":0.0017,"dx":0.0017,"nx":28,"ny":28,"refTime":"2025-07-27T21:00:00:Z","depth":0,"parameterNumber":2,"parameterNumberName":"U-component_of_WINDS"},"data":[0,0,0,0,0,0,0,0,0,0,0,0,0,0,0,0,0,0,0,0,0,0,0,0,0,0,0,0,0,0,0,0,0,0,0,0,0,0,0,0,0,0,0,0,0,0,0,0,0,0,0,0,0,0,0,0,0,0,3.2926,3.2928,0,3.307,3.3072,3.3073,3.3016,3.3013,3.301,3.3006,3.316,3.3167,3.3174,0,0,0,0,0,0,0,0,0,0,0,0,0,3.2607,3.2613,3.2926,3.2928,3.293,3.307,3.3072,3.3074,3.3017,3.3013,3.3009,3.3005,3.3158,3.3166,3.3175,0,0,0,0,0,0,0,0,0,0,0,0,0,3.2748,3.2615,3.2926,3.2918,3.2919,3.3069,3.3072,3.3074,3.3018,3.3013,3.3008,3.3003,3.3155,3.3165,3.3176,3.3345,0,0,3.3209,3.3214,0,0,0,0,0,0,0,0,3.274,3.2759,3.2917,3.2919,3.292,3.302,3.3015,3.3165,3.3019,3.298,3.3006,3.3,3.3118,3.3131,3.317,3.3352,3.3358,3.321,3.3217,3.3221,3.3225,0,0,0,0,0,0,0,3.273,3.2753,3.2983,3.292,3.2921,3.2909,3.2923,3.3043,3.3076,3.2983,3.298,3.2997,3.3118,3.3159,3.3173,3.3361,3.321,3.322,3.3226,3.323,3.3688,3.3693,0,0,0,0,0,0,3.2719,3.2745,3.2979,3.2987,3.2815,3.2919,3.2935,3.2993,3.3075,3.3082,3.3001,3.2994,3.3143,3.316,3.3178,3.338,3.3221,3.3232,3.3238,3.3682,3.3689,3.3695,0,0,0,0,0,0,3.2712,3.274,3.2973,3.2865,3.2894,3.293,3.2995,3.2999,3.304,3.3088,3.3094,3.3038,3.314,3.3163,3.3303,3.3385,3.3236,3.3246,3.3675,3.3684,3.3692,3.3786,0,0,0,0,0,0,3.2703,3.2738,3.2802,3.2867,3.29,3.3094,3.3,3.3005,3.3058,3.305,3.3124,3.3131,3.3138,3.3287,3.3314,3.3397,3.3255,3.3668,3.3679,3.3689,3.3776,3.3797,3.3815,0,0,0,0,0,3.2692,3.2824,3.2805,3.2834,3.298,3.3099,3.3118,3.3121,3.3065,3.313,3.316,3.3129,3.3371,3.3302,3.3332,3.3419,3.3663,3.3676,3.3688,3.3768,3.3793,3.3814,0,0,0,0,0,0,3.277,3.2833,3.2812,3.2969,3.3029,3.3089,3.3171,3.3148,3.3227,3.3216,3.3218,3.3235,3.338,3.3414,3.3335,3.3586,3.3509,3.3528,3.3559,3.3584,3.3603,3.3592,3.3264,0,0,0,0,0,3.2805,3.2895,3.2946,3.3079,3.311,3.3135,3.3187,3.3184,3.3247,3.3273,3.3314,3.3377,3.3468,3.3528,3.3614,3.3781,3.3796,3.3856,3.3875,3.3891,3.3907,3.3998,3.4025,3.3736,3.3736,3.3736,0,0,3.288,3.2925,3.2982,3.3096,3.3142,3.3236,3.3157,3.3261,3.3331,3.3289,3.3423,3.3456,3.3527,3.3681,3.3751,3.3714,3.399,3.3907,3.3919,3.3927,3.4014,3.4041,3.4065,3.3745,3.3744,3.3742,0,0,3.3063,3.3106,3.3221,3.3268,3.3338,3.3353,3.3381,3.3445,3.3463,3.3597,3.3568,3.3652,3.3808,3.386,3.3907,3.4108,3.4082,3.4136,3.4238,3.4326,3.4348,3.4368,3.444,3.4466,3.4152,3.4153,3.4153,0,3.3147,3.3286,3.3284,3.3389,3.3441,3.3404,3.3522,3.3568,3.3663,3.37,3.3656,3.385,3.3896,3.4061,3.411,3.4149,3.4181,3.4128,3.4345,3.4365,3.4384,3.4452,3.4479,3.4159,3.4158,3.4157,3.4157,0,3.3386,3.3483,3.3568,3.3658,3.3718,3.383,3.3846,3.3908,3.3899,3.392,3.4057,3.411,3.4206,3.4245,3.4239,3.4409,3.4384,3.4343,3.4265,3.4417,3.4482,3.4508,3.4168,3.4165,3.4164,3.4162,0,0,3.3624,3.3709,3.374,3.378,3.3853,3.3929,3.4039,3.413,3.4183,3.425,3.4342,3.4474,3.4436,3.4489,3.4488,3.4566,3.4721,3.4515,3.4517,3.4551,3.4912,3.4943,3.4973,3.4704,3.4709,3.4713,3.4906,0,3.3812,3.4002,3.4003,3.4178,3.4268,3.4234,3.433,3.4386,3.4408,3.4488,3.4513,3.4607,3.4549,3.4581,3.4656,3.4686,3.4794,3.4672,3.4791,3.4795,3.4774,3.5007,3.504,3.522,3.4931,3.4936,3.4939,0,3.4058,3.4129,3.4313,3.4372,3.441,3.4495,3.4578,3.4655,3.4719,3.4729,3.4787,3.4775,3.4887,3.4806,3.4961,3.4879,3.4927,3.495,3.4957,3.4968,3.4876,3.5025,3.5277,3.5304,3.4978,3.4975,3.4972,0,3.4212,3.4355,3.4483,3.4519,3.4591,3.4651,3.4685,3.4742,3.4797,3.487,3.4905,3.4992,3.5039,3.5107,3.5118,3.5057,3.5275,3.5194,3.5288,3.5288,3.5335,3.5332,3.5599,3.5367,3.5366,3.5366,3.5365,0,3.4423,3.4537,3.4553,3.4632,3.4759,3.4759,3.4885,3.4913,3.4965,3.505,3.5027,3.5107,3.5117,3.52,3.521,3.5337,3.5359,3.5372,3.5373,3.5374,3.5372,3.5406,3.5394,3.5373,3.5371,3.537,3.5369,0,3.4618,3.4633,3.477,3.4826,3.4843,3.4934,3.4983,3.5059,3.5077,3.5185,3.521,3.5241,3.5338,3.5355,3.5471,3.5477,3.5629,3.5618,3.5607,3.5606,3.5698,3.5689,3.5997,3.6037,3.5778,3.578,3.5782,0,3.4751,3.4838,3.4902,3.4956,3.4991,3.5079,3.5133,3.5137,3.5195,3.5272,3.5339,3.5433,3.5508,3.5665,3.5699,3.5787,3.5777,3.5879,3.5791,3.5788,3.5779,3.5773,3.5782,3.5896,3.5899,3.5901,3.5903,0,3.4987,3.4989,3.5068,3.5149,3.5214,3.5278,3.534,3.5386,3.5397,3.5464,3.5561,3.5619,3.5735,3.5829,3.5916,3.5952,3.5931,3.593,3.5956,3.5959,3.5949,3.5955,3.5653,3.5923,3.5921,3.592,3.5919,3.5918,3.5155,3.5229,3.5286,3.5374,3.5419,3.5477,3.555,3.5577,3.5657,3.575,3.5748,3.5855,3.5916,3.603,3.6071,3.6156,3.6123,3.6162,3.6172,3.6181,3.6189,3.5935,3.6172,3.6171,3.6171,3.617,3.617,0,3.5389,3.5423,3.5503,3.5588,3.5657,3.5628,3.5694,3.5754,3.5848,3.5905,3.5978,3.609,3.618,3.622,3.631,3.637,3.6362,3.6393,3.6389,3.6398,3.6213,3.6181,3.6398,3.6398,3.6398,3.6398,3.6398,3.6398,3.5519,3.5643,3.5652,3.5799,3.5833,3.5935,3.5975,3.6028,3.6074,3.6199,3.6273,3.6297,3.6348,3.644,3.6522,3.6531,3.6566,3.6602,3.6607,3.6434,3.6411,3.6389,3.6359,3.6609,3.6609,3.6784,3.6785,3.6787]},{"header":{"parameterUnit":"m.s-1","parameterCategory":1,"la1":30.2991,"la2":30.254,"lo1":-89.0895,"lo2":-89.0444,"dy":0.0017,"dx":0.0017,"nx":28,"ny":28,"refTime":"2025-07-27T21:00:00:Z","depth":0,"parameterNumber":3,"parameterNumberName":"V-component_of_WINDS"},"data":[0,0,0,0,0,0,0,0,0,0,0,0,0,0,0,0,0,0,0,0,0,0,0,0,0,0,0,0,0,0,0,0,0,0,0,0,0,0,0,0,0,0,0,0,0,0,0,0,0,0,0,0,0,0,0,0,0,0,-0.0109,-0.0109,0,-0.0155,-0.0156,-0.0156,-0.0198,-0.0199,-0.0199,-0.02,-0.0247,-0.0248,-0.0249,0,0,0,0,0,0,0,0,0,0,0,0,0,-0.0057,-0.0058,-0.0109,-0.011,-0.011,-0.0155,-0.0156,-0.0157,-0.0198,-0.0199,-0.0199,-0.02,-0.0247,-0.0248,-0.0249,0,0,0,0,0,0,0,0,0,0,0,0,0,-0.0089,-0.0058,-0.0109,-0.0136,-0.0139,-0.0155,-0.0156,-0.0157,-0.0198,-0.0199,-0.02,-0.02,-0.0247,-0.0248,-0.0249,-0.0241,0,0,-0.0253,-0.0253,0,0,0,0,0,0,0,0,-0.0087,-0.0091,-0.0132,-0.0134,-0.0138,-0.0172,-0.0155,-0.0185,-0.0198,-0.0176,-0.02,-0.0201,-0.0221,-0.0225,-0.0232,-0.0244,-0.0246,-0.0253,-0.0253,-0.0254,-0.0254,0,0,0,0,0,0,0,-0.0085,-0.0089,-0.0127,-0.0132,-0.0136,-0.0147,-0.0152,-0.0161,-0.0194,-0.0178,-0.0181,-0.0186,-0.0223,-0.0231,-0.0233,-0.0246,-0.0253,-0.0254,-0.0255,-0.0255,-0.0256,-0.0255,0,0,0,0,0,0,-0.0079,-0.0087,-0.0126,-0.0129,-0.0114,-0.0147,-0.0153,-0.016,-0.0194,-0.02,-0.0185,-0.0188,-0.0228,-0.0232,-0.0235,-0.0229,-0.0254,-0.0255,-0.0256,-0.0257,-0.0256,-0.0255,0,0,0,0,0,0,-0.0077,-0.0082,-0.0124,-0.0109,-0.0115,-0.0147,-0.0155,-0.0161,-0.0168,-0.0199,-0.0206,-0.0186,-0.0229,-0.0233,-0.024,-0.0231,-0.0256,-0.0257,-0.0257,-0.0256,-0.0255,-0.0217,0,0,0,0,0,0,-0.0076,-0.0081,-0.0078,-0.0108,-0.0116,-0.0127,-0.0154,-0.0161,-0.017,-0.0174,-0.0202,-0.0208,-0.023,-0.0238,-0.0241,-0.0234,-0.0258,-0.0258,-0.0257,-0.0256,-0.0219,-0.0215,-0.0211,0,0,0,0,0,-0.0074,-0.0065,-0.0078,-0.0082,-0.0113,-0.0127,-0.0131,-0.0156,-0.0169,-0.0167,-0.0187,-0.0207,-0.0232,-0.0238,-0.0242,-0.0235,-0.0259,-0.0257,-0.0256,-0.0221,-0.0215,-0.0211,0,0,0,0,0,0,-0.0032,-0.0069,-0.0084,-0.0085,-0.0102,-0.0134,-0.0131,-0.015,-0.0164,-0.0167,-0.0198,-0.0204,-0.0207,-0.0222,-0.0228,-0.023,-0.0248,-0.0247,-0.022,-0.0215,-0.0211,-0.0208,-0.0259,0,0,0,0,0,-0.0023,-0.0032,-0.0064,-0.0062,-0.007,-0.0099,-0.0106,-0.0124,-0.0144,-0.0151,-0.0172,-0.0191,-0.0203,-0.021,-0.0223,-0.0222,-0.0229,-0.0219,-0.0215,-0.0211,-0.021,-0.0211,-0.0207,-0.025,-0.025,-0.025,0,0,-0.0005,-0.0026,-0.0029,-0.0054,-0.007,-0.0078,-0.0105,-0.0112,-0.0119,-0.0153,-0.016,-0.0176,-0.0199,-0.0201,-0.0204,-0.0214,-0.02,-0.0209,-0.0206,-0.0207,-0.0209,-0.0205,-0.0202,-0.0249,-0.0249,-0.0249,0,0,0.0025,0.0008,0.0007,-0.0008,-0.0032,-0.0052,-0.0052,-0.0081,-0.0093,-0.0101,-0.0127,-0.0135,-0.0155,-0.0171,-0.0181,-0.0159,-0.0178,-0.0162,-0.0141,-0.0142,-0.0138,-0.0136,-0.0128,-0.0125,-0.0161,-0.0161,-0.0161,0,0.0051,0.0038,0.001,0.0004,-0.0007,-0.0038,-0.0039,-0.0053,-0.008,-0.0086,-0.0097,-0.0124,-0.0141,-0.0148,-0.0143,-0.015,-0.0152,-0.0159,-0.0137,-0.0134,-0.0132,-0.0125,-0.0122,-0.0159,-0.0159,-0.0159,-0.016,0,0.0071,0.0062,0.0064,0.0039,0.0029,0.0026,-0.0004,-0.0011,-0.0028,-0.0047,-0.0056,-0.0078,-0.0096,-0.0099,-0.0117,-0.0109,-0.0115,-0.0131,-0.015,-0.0125,-0.0119,-0.0117,-0.0156,-0.0157,-0.0157,-0.0158,0,0,0.0126,0.0084,0.0086,0.0073,0.0044,0.0037,0.0031,0.0013,0.0007,-0.001,-0.0016,-0.0033,-0.0048,-0.006,-0.0079,-0.008,-0.0062,-0.0096,-0.0097,-0.0089,-0.0056,-0.0044,-0.0041,-0.0075,-0.0075,-0.0074,-0.0055,0,0.0151,0.014,0.0114,0.011,0.0101,0.0071,0.0066,0.0047,0.0029,0.0018,-0.0002,-0.0014,-0.0033,-0.004,-0.0042,-0.0064,-0.0056,-0.0066,-0.0081,-0.0081,-0.0074,-0.0037,-0.0024,-0.0004,-0.0052,-0.0052,-0.0052,0,0.0179,0.0162,0.0158,0.0128,0.0124,0.012,0.01,0.0091,0.0069,0.0055,0.0042,0.002,0.0012,-0.0006,-0.0018,-0.0024,-0.0032,-0.0044,-0.0044,-0.0046,-0.0065,-0.0039,0.0001,0.0005,-0.0048,-0.0049,-0.0049,0,0.0219,0.0196,0.019,0.0181,0.0146,0.0144,0.0129,0.0106,0.0097,0.0079,0.0073,0.0055,0.0045,0.0032,0.0005,-0.0005,-0.0004,-0.0024,-0.0016,-0.0015,-0.0013,-0.0013,0.0026,-0.0019,-0.0019,-0.0019,-0.0019,0,0.025,0.0248,0.0208,0.0205,0.0202,0.0171,0.0169,0.0152,0.0131,0.0123,0.0095,0.0088,0.0054,0.0043,0.0022,0.0015,0.0011,-0.0001,-0.0006,0.0002,0.0004,-0.0003,-0.0005,-0.0018,-0.0018,-0.0018,-0.0018,0,0.0295,0.0268,0.0259,0.0227,0.0218,0.0218,0.019,0.0185,0.0164,0.0155,0.0151,0.0119,0.0104,0.0076,0.0054,0.004,0.0037,0.0028,0.0045,0.0041,0.0051,0.0051,0.0087,0.009,0.0044,0.0045,0.0045,0,0.0316,0.0314,0.0281,0.0274,0.026,0.0249,0.0238,0.0208,0.0198,0.0172,0.017,0.0153,0.0138,0.0116,0.0091,0.0073,0.0063,0.0077,0.006,0.0068,0.0063,0.0063,0.0062,0.0081,0.0081,0.0082,0.0082,0,0.0357,0.0343,0.0329,0.0311,0.0299,0.0283,0.0266,0.0261,0.0226,0.0217,0.0202,0.019,0.0166,0.015,0.0128,0.0113,0.0092,0.0088,0.0089,0.0097,0.0107,0.0101,0.0055,0.0087,0.0087,0.0086,0.0086,0.0086,0.039,0.0387,0.0363,0.0348,0.0331,0.0315,0.0309,0.0287,0.0274,0.0253,0.0235,0.0221,0.0197,0.0166,0.0152,0.014,0.013,0.0131,0.0132,0.0133,0.0136,0.0109,0.0136,0.0136,0.0135,0.0135,0.0135,0,0.0429,0.0412,0.0398,0.0374,0.0363,0.0344,0.0323,0.0314,0.0302,0.0282,0.0267,0.0249,0.0232,0.0205,0.0186,0.0182,0.0172,0.0178,0.0178,0.0174,0.0146,0.0147,0.0186,0.0186,0.0186,0.0186,0.0186,0.0186,0.0448,0.0441,0.0424,0.0408,0.039,0.0376,0.0366,0.0351,0.0334,0.0315,0.0301,0.0283,0.026,0.0239,0.0222,0.0215,0.0209,0.0218,0.0208,0.0181,0.0177,0.0172,0.0173,0.0217,0.0217,0.0237,0.0237,0.0237]}]]